Location: Boutencourt
(49.3196°N, 1.8580°E)
Time: 19:59:54
(UTC+00:00)

Cosmos 1544 Rocket - Pass Details

Date: 13 December 2025
Orbit: 598 x 622 km, 82.5° (Epoch: 13 April)

Event Time Altitude Azimuth Distance (km) Brightness Sun altitude
Rises 16:59:13 0° 202° (SSW) 2,882 7.8 -10.1°
Reaches altitude 10° 17:01:29 10° 208° (SSW) 1,984 7.0 -10.4°
Maximum altitude 17:05:46 50° 284° (WNW) 798 4.5 -11.0°
Drops below altitude 10° 17:10:06 10° 0° (N) 2,006 6.0 -11.7°
Sets 17:12:24 0° 6° (N) 2,918 6.7 -12.0°
